Knoxville
Wednesday 11:35 PM
Temperature63° (79°/55°)
Dew Point59°
Relative Humidity88
%
Visibility10
mi
Pressure1014.2
mb
Wind DirectionS
190°
Wind Speed6
mph
Precipitation Today0.00"

Last 30 Observations

Time PresWx Temp DP Feels RH% Vsby Pressure Ceiling Direction Speed 1h Precip
11:15 PM 64° 61° 88
%
10
mi
1014.6
mb
5,000
ft
S
190°
6
mph
0.00"
10:55 PM 64° 61° 88
%
10
mi
1014.6
mb
5,000
ft
S
190°
6
mph
0.00"
10:35 PM 66° 61° 83
%
10
mi
1014.9
mb
5,000
ft
S
180°
5
mph
0.00"
10:15 PM 64° 59° 83
%
10
mi
1014.9
mb
S
180°
5
mph
0.00"
9:55 PM 66° 59° 78
%
10
mi
1014.6
mb
SSE
160°
5
mph
0.00"
9:35 PM 66° 59° 78
%
10
mi
1014.6
mb
S
170°
5
mph
0.00"
9:15 PM 68° 61° 78
%
10
mi
1014.6
mb
5,000
ft
SSE
160°
6
mph
0.00"
8:55 PM 68° 61° 78
%
10
mi
1014.6
mb
4,300
ft
SSE
160°
5
mph
0.00"
8:35 PM 68° 59° 73
%
10
mi
1014.2
mb
S
170°
5
mph
0.00"
8:15 PM 70° 59° 69
%
10
mi
1014.2
mb
S
170°
5
mph
0.00"
7:55 PM 70° 59° 69
%
10
mi
1014.2
mb
SSE
160°
3
mph
0.00"
7:35 PM 70° 59° 69
%
10
mi
1013.9
mb
Calm 0.00"
7:15 PM 72° 59° 71°65
%
10
mi
1013.9
mb
S
180°
5
mph
0.00"
6:55 PM 73° 59° 73°61
%
10
mi
1013.9
mb
S
190°
3
mph
0.00"
6:35 PM 73° 59° 73°61
%
10
mi
1013.9
mb
S
180°
6
mph
0.00"
6:15 PM 75° 59° 75°57
%
10
mi
1013.9
mb
SSW
200°
6
mph
0.00"
5:55 PM 77° 59° 77°54
%
10
mi
1013.9
mb
S
180°
6
mph
0.00"
5:35 PM 77° 59° 77°54
%
10
mi
1013.9
mb
SSW
210°
8
mph
0.00"
5:15 PM 77° 59° 77°54
%
10
mi
1013.9
mb
SSW
210°
7
mph
0.00"
4:55 PM 79° 61° 79°54
%
10
mi
1014.2
mb
SSE
150°
7
mph
0.00"
4:35 PM 79° 61° 79°54
%
10
mi
1014.2
mb
S
170°
6
mph
0.00"
4:15 PM 79° 61° 79°54
%
10
mi
1014.6
mb
SSW
200°
9
mph
0.00"
3:55 PM 79° 59° 79°51
%
10
mi
1014.6
mb
SSW
210°
11
mph
0.00"
3:35 PM 77° 59° 77°54
%
10
mi
1014.9
mb
Variable 6
mph
0.00"
3:15 PM 79° 61° 79°54
%
10
mi
1014.9
mb
Variable 7
mph
(G13)
0.00"
2:55 PM 77° 59° 77°54
%
10
mi
1015.2
mb
S
180°
5
mph
(G14)
0.00"
2:35 PM 77° 59° 77°54
%
10
mi
1015.2
mb
SSW
200°
10
mph
0.00"
2:15 PM 77° 59° 77°54
%
10
mi
1015.6
mb
SSW
210°
8
mph
0.00"
1:55 PM 77° 59° 77°54
%
10
mi
1016.3
mb
SSW
200°
10
mph
(G17)
0.00"
1:35 PM 77° 61° 77°57
%
10
mi
1016.6
mb
Variable 7
mph
0.00"